Location: Great Falls
(47.5000°N, 111.3000°W)
Time: 02:48:55
(UTC-06:00)

Envisat - Visible Passes

Search period start: 20 August 2018 00:00
Search period end: 30 August 2018 00:00
Orbit: 764 x 766 km, 98.2° (Epoch: 19 August)

Date Brightness Start Highest point End Pass type
(mag) Time Alt. Az. Time Alt. Az. Time Alt. Az.
20 Aug 5.6 21:41:31 10° SW 21:45:13 20° W 21:48:58 10° NW visible
21 Aug 4.4 21:03:25 10° SSW 21:08:11 41° W 21:13:00 10° NNW visible
22 Aug 5.9 22:09:19 10° WSW 22:11:08 12° W 22:12:59 10° WNW visible
23 Aug 5.3 21:29:49 10° SSW 21:33:57 25° W 21:38:07 10° NW visible
24 Aug 4.0 20:52:02 10° S 20:56:58 51° W 21:01:56 10° NNW visible
25 Aug 5.8 21:56:58 10° WSW 21:59:49 15° W 22:02:40 10° NW visible
26 Aug 4.9 21:18:14 10° SSW 21:22:41 30° W 21:27:10 10° NNW visible
27 Aug 3.6 20:40:43 10° S 20:45:45 63° WSW 20:50:49 10° NNW visible
28 Aug 5.6 21:45:01 10° SW 21:48:30 19° W 21:52:01 10° NW visible
29 Aug 4.5 21:06:44 10° SSW 21:11:26 37° W 21:16:10 10° NNW visible
